Погода в Катенино

Россия / Челябинская область     53°10′41″N   61°03′25″E
темп.,
°C
ветер,
м/с
пор.,
м/с
влажн.,
%
обл.,
%
осадки,
мм/ч
давл.,
гПа
погр.,
м
30 июня, чт
чт3023:00+7зсз47866 0.0 1011122
02:00+6з47895 0.0 1010114
05:00+6з48894 0.0 1010137
08:00+12зсз46675 0.0 1009359
11:00+17сз45495 0.0 10091513
14:00+19зсз3339100 0.0 10082398
17:00+17юз3453100 0.0 100886
20:00+16з226682 0.0 100934
1 июля, пт
пт123:00+13юз336885 0.0 100930
02:00+13з116797 0.0 101016
05:00+13ссв1169100 0.0 101110
08:00+16ююз116183 0.0 1011261
11:00+20с114193 0.0 10122483
14:00+20ю123868 0.0 10122283
17:00+20вюв334384 0.0 10121810
20:00+16зсз225782 0.0 101225
2 июля, сб
сб223:00+14в116136 0.0 101311
02:00+12вюв226430 0.0 101312
05:00+11св226923 0.0 101310
08:00+16св11587 0.0 1013208
11:00+20св22487 0.0 10131386
14:00+21в114499 0.0 10121946
17:00+21св014435 0.0 1012692
20:00+18всв356817 0.0 1011132
3 июля, вс
вс323:00+14в46710 0.0 101174
02:00+12вюв337699 0.0 101130
05:00+11вюв2281100 0.0 101024
08:00+16в2367100 0.0 1009259
11:00+20в3354100 0.0 1008887
14:00+22св334176 0.0 10062499
17:00+20всв455628 0.0 1005602
20:00+18всв3568100 0.3 1004112
4 июля, пн
пн423:00+14ссв3484100 0.8 100465
02:00+13с388951 1.7 1004175
05:00+11с4109432 1.7 1004232
08:00+14ссв7109195 0.0 1005518
11:00+13с81292100 0.5 1006698
14:00+13с91291100 0.1 1007763
17:00+14ссв91275100 0.1 10091006
20:00+14ссв6107043 0.0 10101052